,,PA_Meas_PMT16A,,PR_Meas_QMR101_102,,RH_Meas_QMH101,,SR_Meas_QMS101,,TA_Meas_QMH101,,GenWind,,GenWind,
time,status,PA,status,PR,status,RH,status,SR,status,TA,status,DirAvg,status,SpdAvg,
2011-03-13, 00:00:05,VALID,918.034,VALID,0,VALID,94.8429,VALID,0,VALID,19.5063,VALID,351,VALID,1.33789,
2011-03-13, 00:01:05,VALID,918.018,VALID,0,VALID,94.4389,VALID,0,VALID,19.4103,VALID,346,VALID,1.45391,
2011-03-13, 00:02:05,VALID,917.971,VALID,0,VALID,94.3855,VALID,0,VALID,19.3698,VALID,347,VALID,1.34375,
2011-03-13, 00:03:04,VALID,917.967,VALID,0.2,VALID,93.9662,VALID,0,VALID,19.2918,VALID,353,VALID,0.8625,
2011-03-13, 00:04:04,VALID,917.992,VALID,0,VALID,93.8214,VALID,0,VALID,19.2334,VALID,353,VALID,0.650781,
2011-03-13, 00:05:04,VALID,918.004,VALID,0,VALID,94.1492,VALID,0,VALID,19.2933,VALID,353,VALID,0.03125,
2011-03-13, 00:06:04,VALID,917.993,VALID,0,VALID,93.8824,VALID,0,VALID,19.1944,VALID,353,VALID,0.578906,
2011-03-13, 00:07:04,VALID,918.012,VALID,0,VALID,94.2026,VALID,0,VALID,19.2543,VALID,353,VALID,0.171094,
2011-03-13, 00:08:04,VALID,918.002,VALID,0,VALID,94.3855,VALID,0,VALID,19.2334,VALID,353,VALID,0,
2011-03-13, 00:09:04,VALID,917.993,VALID,0.2,VALID,94.3321,VALID,0,VALID,19.2153,VALID,353,VALID,0.547656,
2011-03-13, 00:10:04,VALID,917.978,VALID,0,VALID,94.2864,VALID,0,VALID,19.2153,VALID,353,VALID,0.175781,
2011-03-13, 00:11:04,VALID,917.948,VALID,0,VALID,94.5227,VALID,0,VALID,19.2139,VALID,353,VALID,0.154687,
2011-03-13, 00:12:04,VALID,917.92,VALID,0,VALID,94.7362,VALID,0,VALID,19.2543,VALID,353,VALID,0.436328,
2011-03-13, 00:13:04,VALID,917.863,VALID,0,VALID,94.7896,VALID,0,VALID,19.2348,VALID,353,VALID,1.05586,
2011-03-13, 00:14:04,VALID,917.847,VALID,0,VALID,94.7972,VALID,0,VALID,19.1958,VALID,353,VALID,0.574609,
2011-03-13, 00:15:04,VALID,917.869,VALID,0,VALID,95.0488,VALID,0,VALID,19.2153,VALID,353,VALID,0.337891,
2011-03-13, 00:16:04,VALID,917.887,VALID,0,VALID,95.1936,VALID,0,VALID,19.1944,VALID,353,VALID,0.479688,
2011-03-13, 00:17:04,VALID,917.862,VALID,0,VALID,95.2851,VALID,0,VALID,19.2153,VALID,353,VALID,0.472656,
2011-03-13, 00:18:04,VALID,917.909,VALID,0,VALID,95.5443,VALID,0,VALID,19.2738,VALID,353,VALID,0.240234,
2011-03-13, 00:19:04,VALID,917.899,VALID,0,VALID,95.4833,VALID,0,VALID,19.2543,VALID,353,VALID,0.352734,
2011-03-13, 00:20:04,VALID,917.912,VALID,0,VALID,95.5976,VALID,0,VALID,19.2153,VALID,353,VALID,0.335547,
2011-03-13, 00:21:04,VALID,917.912,VALID,0,VALID,95.6967,VALID,0,VALID,19.2543,VALID,353,VALID,0.0910156,
2011-03-13, 00:22:04,VALID,917.901,VALID,0,VALID,95.712,VALID,0,VALID,19.2348,VALID,353,VALID,0,
2011-03-13, 00:23:04,VALID,917.887,VALID,0,VALID,95.773,VALID,0,VALID,19.2334,VALID,353,VALID,0.00390625,
2011-03-13, 00:24:04,VALID,917.865,VALID,0,VALID,95.773,VALID,0,VALID,19.2543,VALID,353,VALID,0.383594,
2011-03-13, 00:25:04,VALID,917.862,VALID,0,VALID,95.6815,VALID,0,VALID,19.2139,VALID,353,VALID,0.431641,
2011-03-13, 00:26:04,VALID,917.839,VALID,0,VALID,95.4299,VALID,0,VALID,19.1178,VALID,353,VALID,0.683984,
2011-03-13, 00:27:04,VALID,917.818,VALID,0,VALID,95.4299,VALID,0,VALID,19.0788,VALID,353,VALID,0.528125,
2011-03-13, 00:28:04,VALID,917.817,VALID,0.2,VALID,95.4452,VALID,0,VALID,19.0398,VALID,353,VALID,0.486719,
2011-03-13, 00:29:04,VALID,917.826,VALID,0,VALID,95.6053,VALID,0,VALID,19.0398,VALID,353,VALID,0.189453,
2011-03-13, 00:30:04,VALID,917.845,VALID,0,VALID,95.5824,VALID,0,VALID,19.0203,VALID,353,VALID,0.392188,
2011-03-13, 00:31:04,VALID,917.844,VALID,0,VALID,95.651,VALID,0,VALID,18.9604,VALID,353,VALID,0.0449219,
2011-03-13, 00:32:04,VALID,917.861,VALID,0,VALID,95.7882,VALID,0,VALID,19.0008,VALID,353,VALID,0.582812,
2011-03-13, 00:33:04,VALID,917.864,VALID,0,VALID,95.834,VALID,0,VALID,18.9799,VALID,353,VALID,0.842188,
2011-03-13, 00:34:04,VALID,917.846,VALID,0,VALID,95.8797,VALID,0,VALID,19.0008,VALID,353,VALID,0.782812,
2011-03-13, 00:35:04,VALID,917.827,VALID,0,VALID,95.8797,VALID,0,VALID,18.9814,VALID,353,VALID,1.0582,
2011-03-13, 00:36:04,VALID,917.838,VALID,0,VALID,95.9178,VALID,0,VALID,19.0008,VALID,353,VALID,0.816797,
2011-03-13, 00:37:04,VALID,917.827,VALID,0,VALID,95.9864,VALID,0,VALID,19.0008,VALID,353,VALID,0.358984,
2011-03-13, 00:38:04,VALID,917.855,VALID,0,VALID,96.0169,VALID,0,VALID,19.0008,VALID,353,VALID,0.404687,
2011-03-13, 00:39:04,VALID,917.845,VALID,0,VALID,95.9102,VALID,0,VALID,18.9424,VALID,353,VALID,0.647656,
2011-03-13, 00:40:04,VALID,917.848,VALID,0,VALID,95.9407,VALID,0,VALID,18.9034,VALID,353,VALID,0.2875,
2011-03-13, 00:41:04,VALID,917.86,VALID,0,VALID,96.0093,VALID,0,VALID,18.9034,VALID,353,VALID,0.252344,
2011-03-13, 00:42:04,VALID,917.848,VALID,0,VALID,95.9712,VALID,0,VALID,18.9034,VALID,353,VALID,0.750781,
2011-03-13, 00:43:04,VALID,917.848,VALID,0,VALID,96.0245,VALID,0,VALID,18.9034,VALID,353,VALID,0.518359,
2011-03-13, 00:44:04,VALID,917.827,VALID,0,VALID,96.0474,VALID,0,VALID,18.9034,VALID,353,VALID,0.521875,
2011-03-13, 00:45:04,VALID,917.824,VALID,0,VALID,96.1313,VALID,0,VALID,18.9229,VALID,353,VALID,0.875391,
2011-03-13, 00:46:04,VALID,917.839,VALID,0,VALID,96.1465,VALID,0,VALID,18.9034,VALID,353,VALID,0.789453,
2011-03-13, 00:47:04,VALID,917.834,VALID,0,VALID,96.116,VALID,0,VALID,18.8644,VALID,353,VALID,0.587891,
2011-03-13, 00:48:04,VALID,917.838,VALID,0,VALID,96.1541,VALID,0,VALID,18.8644,VALID,353,VALID,0.519922,
2011-03-13, 00:49:04,VALID,917.827,VALID,0,VALID,96.1999,VALID,0,VALID,18.8853,VALID,353,VALID,0.585547,
2011-03-13, 00:50:04,VALID,917.801,VALID,0.2,VALID,96.2533,VALID,0,VALID,18.9243,VALID,53,VALID,0.6375,
2011-03-13, 00:51:04,VALID,917.78,VALID,0,VALID,96.2151,VALID,0,VALID,18.8449,VALID,53,VALID,0.585156,
2011-03-13, 00:52:04,VALID,917.759,VALID,0,VALID,96.2304,VALID,0,VALID,18.8449,VALID,53,VALID,0.911719,
2011-03-13, 00:53:04,VALID,917.749,VALID,0,VALID,96.238,VALID,0,VALID,18.8254,VALID,53,VALID,1.04453,
2011-03-13, 00:54:04,VALID,917.711,VALID,0,VALID,96.2761,VALID,0,VALID,18.8254,VALID,53,VALID,0.852734,
2011-03-13, 00:55:04,VALID,917.67,VALID,0,VALID,96.2609,VALID,0,VALID,18.8059,VALID,53,VALID,0.730859,
2011-03-13, 00:56:04,VALID,917.676,VALID,0,VALID,96.2609,VALID,0,VALID,18.8059,VALID,53,VALID,0.685938,
2011-03-13, 00:57:04,VALID,917.624,VALID,0,VALID,96.2761,VALID,0,VALID,18.7864,VALID,54,VALID,1.06953,
2011-03-13, 00:58:04,VALID,917.626,VALID,0,VALID,96.2228,VALID,0,VALID,18.7474,VALID,94,VALID,1.20508,
2011-03-13, 00:59:04,VALID,917.622,VALID,0,VALID,96.2609,VALID,0,VALID,18.7474,VALID,173,VALID,1.0375,
2011-03-13, 01:00:04,VALID,917.575,VALID,0,VALID,96.2837,VALID,0,VALID,18.7265,VALID,173,VALID,0.608984,
2011-03-13, 01:01:04,VALID,917.562,VALID,0,VALID,96.2914,VALID,0,VALID,18.7669,VALID,173,VALID,1.0457,
2011-03-13, 01:02:04,VALID,917.558,VALID,0,VALID,96.3142,VALID,0,VALID,18.7474,VALID,173,VALID,1.01523,
2011-03-13, 01:03:04,VALID,917.533,VALID,0,VALID,96.3524,VALID,0,VALID,18.7474,VALID,173,VALID,0.710547,
2011-03-13, 01:04:04,VALID,917.502,VALID,0,VALID,96.3142,VALID,0,VALID,18.7084,VALID,129,VALID,1.19922,
2011-03-13, 01:05:04,VALID,917.498,VALID,0,VALID,96.2837,VALID,0,VALID,18.6889,VALID,137,VALID,1.1043,
2011-03-13, 01:06:04,VALID,917.469,VALID,0,VALID,96.2456,VALID,0,VALID,18.6694,VALID,143,VALID,1.92109,
2011-03-13, 01:07:04,VALID,917.458,VALID,0,VALID,96.2075,VALID,0,VALID,18.6499,VALID,148,VALID,0.998438,
2011-03-13, 01:08:04,VALID,917.4,VALID,0,VALID,96.2228,VALID,0,VALID,18.6499,VALID,134,VALID,0.920313,
2011-03-13, 01:09:04,VALID,917.383,VALID,0,VALID,96.2075,VALID,0,VALID,18.6499,VALID,138,VALID,0.967969,
2011-03-13, 01:10:04,VALID,917.329,VALID,0,VALID,96.1694,VALID,0,VALID,18.6499,VALID,148,VALID,1.43438,
2011-03-13, 01:11:04,VALID,917.309,VALID,0.2,VALID,96.1465,VALID,0,VALID,18.6499,VALID,146,VALID,1.25234,
2011-03-13, 01:12:04,VALID,917.286,VALID,0,VALID,96.1084,VALID,0,VALID,18.6708,VALID,156,VALID,0.912109,
2011-03-13, 01:13:04,VALID,917.243,VALID,0,VALID,96.0398,VALID,0,VALID,18.6513,VALID,173,VALID,1.62773,
2011-03-13, 01:14:04,VALID,917.221,VALID,0,VALID,96.055,VALID,0,VALID,18.6694,VALID,182,VALID,0.427344,
2011-03-13, 01:15:04,VALID,917.251,VALID,0,VALID,96.0245,VALID,0,VALID,18.6499,VALID,159,VALID,1.19219,
2011-03-13, 01:16:04,VALID,917.195,VALID,0,VALID,96.0169,VALID,0,VALID,18.6889,VALID,154,VALID,0.465234,
2011-03-13, 01:17:04,VALID,917.17,VALID,0,VALID,95.9712,VALID,0,VALID,18.6889,VALID,155,VALID,1.18008,
2011-03-13, 01:18:04,VALID,917.159,VALID,0,VALID,95.9026,VALID,0,VALID,18.6499,VALID,148,VALID,0.994141,
2011-03-13, 01:19:04,VALID,917.13,VALID,0,VALID,95.8263,VALID,0,VALID,18.6694,VALID,141,VALID,1.61055,
2011-03-13, 01:20:04,VALID,917.084,VALID,0,VALID,95.7654,VALID,0,VALID,18.6708,VALID,131,VALID,0.978906,
2011-03-13, 01:21:04,VALID,917.051,VALID,0,VALID,95.7806,VALID,0,VALID,18.6889,VALID,133,VALID,0.782422,
2011-03-13, 01:22:04,VALID,917.048,VALID,0,VALID,95.7044,VALID,0,VALID,18.6903,VALID,149,VALID,1.03945,
2011-03-13, 01:23:04,VALID,916.998,VALID,0,VALID,95.6357,VALID,0,VALID,18.629,VALID,120,VALID,1.13633,
2011-03-13, 01:24:04,VALID,917.011,VALID,0,VALID,95.6434,VALID,0,VALID,18.6708,VALID,160,VALID,1.13945,
2011-03-13, 01:25:04,VALID,916.959,VALID,0,VALID,95.6586,VALID,0,VALID,18.6499,VALID,142,VALID,1.7668,
2011-03-13, 01:26:04,VALID,916.944,VALID,0,VALID,95.6967,VALID,0,VALID,18.6499,VALID,140,VALID,0.963281,
2011-03-13, 01:27:04,VALID,916.947,VALID,0,VALID,95.7425,VALID,0,VALID,18.6513,VALID,143,VALID,1.76016,
2011-03-13, 01:28:04,VALID,916.917,VALID,0,VALID,95.7501,VALID,0,VALID,18.6499,VALID,139,VALID,1.44297,
2011-03-13, 01:29:04,VALID,916.895,VALID,0,VALID,95.8187,VALID,0,VALID,18.6694,VALID,170,VALID,1.37539,
2011-03-13, 01:30:04,VALID,916.87,VALID,0,VALID,95.8797,VALID,0,VALID,18.6708,VALID,150,VALID,1.37344,
2011-03-13, 01:31:04,VALID,916.859,VALID,0,VALID,95.834,VALID,0,VALID,18.6499,VALID,160,VALID,2.21523,
2011-03-13, 01:32:04,VALID,916.84,VALID,0,VALID,95.8721,VALID,0,VALID,18.6499,VALID,168,VALID,0.878516,
2011-03-13, 01:33:04,VALID,916.793,VALID,0,VALID,95.9178,VALID,0,VALID,18.6694,VALID,159,VALID,2.23867,
2011-03-13, 01:34:04,VALID,916.792,VALID,0,VALID,95.8568,VALID,0,VALID,18.6708,VALID,160,VALID,1.65039,
2011-03-13, 01:35:04,VALID,916.753,VALID,0,VALID,95.8492,VALID,0,VALID,18.6708,VALID,175,VALID,1.22109,
2011-03-13, 01:36:04,VALID,916.727,VALID,0,VALID,95.8035,VALID,0,VALID,18.6499,VALID,182,VALID,1.67734,
2011-03-13, 01:37:04,VALID,916.687,VALID,0,VALID,95.773,VALID,0,VALID,18.6513,VALID,165,VALID,2.21211,
2011-03-13, 01:38:04,VALID,916.739,VALID,0,VALID,95.8111,VALID,0,VALID,18.6708,VALID,170,VALID,1.77969,
2011-03-13, 01:39:04,VALID,916.742,VALID,0,VALID,95.7577,VALID,0,VALID,18.6513,VALID,157,VALID,1.81016,
2011-03-13, 01:40:04,VALID,916.687,VALID,0,VALID,95.712,VALID,0,VALID,18.6513,VALID,167,VALID,1.60078,
2011-03-13, 01:41:04,VALID,916.738,VALID,0,VALID,95.712,VALID,0,VALID,18.6304,VALID,159,VALID,0.842969,
2011-03-13, 01:42:04,VALID,916.748,VALID,0,VALID,95.7349,VALID,0,VALID,18.6708,VALID,159,VALID,1.59531,
2011-03-13, 01:43:04,VALID,916.714,VALID,0,VALID,95.8035,VALID,0,VALID,18.6304,VALID,166,VALID,1.28516,
2011-03-13, 01:44:04,VALID,916.72,VALID,0,VALID,95.834,VALID,0,VALID,18.6109,VALID,152,VALID,1.33828,
2011-03-13, 01:45:04,VALID,916.723,VALID,0,VALID,95.9026,VALID,0,VALID,18.6109,VALID,165,VALID,1.32383,
2011-03-13, 01:46:04,VALID,916.699,VALID,0,VALID,95.9331,VALID,0,VALID,18.6109,VALID,166,VALID,1.17578,
2011-03-13, 01:47:04,VALID,916.708,VALID,0,VALID,96.0017,VALID,0,VALID,18.6109,VALID,182,VALID,0.928125,
2011-03-13, 01:48:04,VALID,916.668,VALID,0,VALID,96.0017,VALID,0,VALID,18.5914,VALID,164,VALID,2.13945,
2011-03-13, 01:49:04,VALID,916.666,VALID,0,VALID,96.0398,VALID,0,VALID,18.6124,VALID,174,VALID,1.48594,
2011-03-13, 01:50:04,VALID,916.647,VALID,0,VALID,96.0322,VALID,0,VALID,18.572,VALID,174,VALID,1.59805,
2011-03-13, 01:51:04,VALID,916.641,VALID,0,VALID,96.0398,VALID,0,VALID,18.5914,VALID,190,VALID,1.62617,
2011-03-13, 01:52:04,VALID,916.622,VALID,0,VALID,96.055,VALID,0,VALID,18.572,VALID,179,VALID,1.6375,
2011-03-13, 01:53:04,VALID,916.573,VALID,0,VALID,96.0245,VALID,0,VALID,18.572,VALID,174,VALID,1.15508,
2011-03-13, 01:54:04,VALID,916.561,VALID,0,VALID,96.0322,VALID,0,VALID,18.5525,VALID,172,VALID,2.19258,
2011-03-13, 01:55:04,VALID,916.558,VALID,0,VALID,96.0169,VALID,0,VALID,18.5734,VALID,159,VALID,1.11523,
2011-03-13, 01:56:04,VALID,916.568,VALID,0,VALID,95.9941,VALID,0,VALID,18.5929,VALID,188,VALID,1.26914,
2011-03-13, 01:57:04,VALID,916.587,VALID,0,VALID,95.9483,VALID,0,VALID,18.5929,VALID,173,VALID,1.15195,
2011-03-13, 01:58:04,VALID,916.545,VALID,0,VALID,95.9331,VALID,0,VALID,18.5734,VALID,174,VALID,1.99844,
2011-03-13, 01:59:04,VALID,916.539,VALID,0,VALID,95.9331,VALID,0,VALID,18.572,VALID,167,VALID,1.19023,
2011-03-13, 02:00:04,VALID,916.519,VALID,0,VALID,95.8416,VALID,0,VALID,18.5734,VALID,165,VALID,1.36563,
2011-03-13, 02:01:04,VALID,916.515,VALID,0,VALID,95.7272,VALID,0,VALID,18.5539,VALID,147,VALID,1.27852,
2011-03-13, 02:02:04,VALID,916.495,VALID,0,VALID,95.6434,VALID,0,VALID,18.533,VALID,185,VALID,1.63945,
2011-03-13, 02:03:04,VALID,916.496,VALID,0,VALID,95.4604,VALID,0,VALID,18.5525,VALID,113,VALID,1.48398,
2011-03-13, 02:04:04,VALID,916.499,VALID,0,VALID,95.1707,VALID,0,VALID,18.572,VALID,166,VALID,1.02227,
2011-03-13, 02:05:04,VALID,916.511,VALID,0,VALID,94.8887,VALID,0,VALID,18.6124,VALID,158,VALID,0.819922,
2011-03-13, 02:06:04,VALID,916.514,VALID,0,VALID,94.5685,VALID,0,VALID,18.6109,VALID,144,VALID,0.868359,
2011-03-13, 02:07:04,VALID,916.501,VALID,0,VALID,94.3855,VALID,0,VALID,18.6304,VALID,105,VALID,0.921094,
2011-03-13, 02:08:04,VALID,916.467,VALID,0,VALID,94.1568,VALID,0,VALID,18.6708,VALID,133,VALID,0.971484,
2011-03-13, 02:09:04,VALID,916.463,VALID,0,VALID,94.0425,VALID,0,VALID,18.6513,VALID,138,VALID,1.34141,
2011-03-13, 02:10:04,VALID,916.432,VALID,0,VALID,93.9129,VALID,0,VALID,18.6499,VALID,133,VALID,1.57422,
2011-03-13, 02:11:04,VALID,916.441,VALID,0,VALID,93.9281,VALID,0,VALID,18.6513,VALID,130,VALID,1.41562,
2011-03-13, 02:12:04,VALID,916.398,VALID,0,VALID,93.9052,VALID,0,VALID,18.6304,VALID,158,VALID,1.7832,
2011-03-13, 02:13:04,VALID,916.396,VALID,0,VALID,93.8519,VALID,0,VALID,18.6109,VALID,144,VALID,1.3043,
2011-03-13, 02:14:04,VALID,916.389,VALID,0,VALID,93.8671,VALID,0,VALID,18.6124,VALID,133,VALID,1.04492,
2011-03-13, 02:15:04,VALID,916.391,VALID,0,VALID,93.9586,VALID,0,VALID,18.6124,VALID,147,VALID,0.805469,
2011-03-13, 02:16:04,VALID,916.354,VALID,0,VALID,94.0425,VALID,0,VALID,18.5929,VALID,130,VALID,0.816406,
2011-03-13, 02:17:04,VALID,916.341,VALID,0,VALID,94.2635,VALID,0,VALID,18.5914,VALID,130,VALID,0.601172,
2011-03-13, 02:18:04,VALID,916.344,VALID,0,VALID,94.3017,VALID,0,VALID,18.5929,VALID,131,VALID,0.811719,
2011-03-13, 02:19:04,VALID,916.336,VALID,0,VALID,94.3398,VALID,0,VALID,18.5929,VALID,133,VALID,1.41406,
2011-03-13, 02:20:04,VALID,916.339,VALID,0,VALID,94.4541,VALID,0,VALID,18.5929,VALID,115,VALID,0.675781,
2011-03-13, 02:21:04,VALID,916.315,VALID,0,VALID,94.538,VALID,0,VALID,18.6124,VALID,122,VALID,0.646875,
2011-03-13, 02:22:04,VALID,916.332,VALID,0,VALID,94.4541,VALID,0,VALID,18.572,VALID,147,VALID,0.728516,
2011-03-13, 02:23:04,VALID,916.333,VALID,0,VALID,94.3626,VALID,0,VALID,18.6124,VALID,141,VALID,1.05586,
2011-03-13, 02:24:04,VALID,916.331,VALID,0,VALID,94.3398,VALID,0,VALID,18.5929,VALID,112,VALID,0.638672,
2011-03-13, 02:25:04,VALID,916.316,VALID,0,VALID,94.3245,VALID,0,VALID,18.5734,VALID,119,VALID,1.26523,
2011-03-13, 02:26:04,VALID,916.323,VALID,0,VALID,94.3169,VALID,0,VALID,18.5929,VALID,123,VALID,1.20195,
2011-03-13, 02:27:04,VALID,916.362,VALID,0,VALID,94.3398,VALID,0,VALID,18.5929,VALID,126,VALID,1.04336,
2011-03-13, 02:28:04,VALID,916.321,VALID,0,VALID,94.2026,VALID,0,VALID,18.572,VALID,129,VALID,1.78086,
2011-03-13, 02:29:04,VALID,916.337,VALID,0,VALID,94.1187,VALID,0,VALID,18.6319,VALID,90,VALID,1.54883,
2011-03-13, 02:30:04,VALID,916.333,VALID,0,VALID,94.1263,VALID,0,VALID,18.6708,VALID,104,VALID,0.763281,
2011-03-13, 02:31:04,VALID,916.287,VALID,0,VALID,93.9586,VALID,0,VALID,18.6513,VALID,124,VALID,1.24141,
2011-03-13, 02:32:04,VALID,916.288,VALID,0,VALID,93.9205,VALID,0,VALID,18.6513,VALID,125,VALID,0.454297,
2011-03-13, 02:33:04,VALID,916.273,VALID,0,VALID,94.012,VALID,0,VALID,18.6499,VALID,124,VALID,0.852344,
2011-03-13, 02:34:04,VALID,916.253,VALID,0,VALID,93.9815,VALID,0,VALID,18.6708,VALID,124,VALID,0.553125,
2011-03-13, 02:35:04,VALID,916.262,VALID,0,VALID,94.1111,VALID,0,VALID,18.6304,VALID,124,VALID,0.630469,
2011-03-13, 02:36:04,VALID,916.248,VALID,0,VALID,94.1797,VALID,0,VALID,18.6319,VALID,73,VALID,0.957031,
2011-03-13, 02:37:04,VALID,916.229,VALID,0,VALID,94.3169,VALID,0,VALID,18.6124,VALID,73,VALID,0.936719,
2011-03-13, 02:38:04,VALID,916.233,VALID,0,VALID,94.3855,VALID,0,VALID,18.5525,VALID,73,VALID,0.959766,
2011-03-13, 02:39:04,VALID,916.25,VALID,0,VALID,94.6142,VALID,0,VALID,18.5525,VALID,73,VALID,0.887891,
2011-03-13, 02:40:04,VALID,916.23,VALID,0,VALID,94.7209,VALID,0,VALID,18.5344,VALID,73,VALID,0.681641,
2011-03-13, 02:41:04,VALID,916.207,VALID,0,VALID,94.7438,VALID,0,VALID,18.494,VALID,73,VALID,0.71875,
2011-03-13, 02:42:04,VALID,916.22,VALID,0,VALID,94.7591,VALID,0,VALID,18.494,VALID,116,VALID,0.854688,
2011-03-13, 02:43:04,VALID,916.226,VALID,0,VALID,94.7438,VALID,0,VALID,18.5344,VALID,116,VALID,0.430469,
2011-03-13, 02:44:04,VALID,916.214,VALID,0,VALID,94.7362,VALID,0,VALID,18.5135,VALID,116,VALID,0.430859,
2011-03-13, 02:45:04,VALID,916.195,VALID,0,VALID,94.7133,VALID,0,VALID,18.5135,VALID,116,VALID,0.628125,
2011-03-13, 02:46:04,VALID,916.176,VALID,0,VALID,94.6905,VALID,0,VALID,18.5525,VALID,116,VALID,0.462109,
2011-03-13, 02:47:04,VALID,916.153,VALID,0,VALID,94.6142,VALID,0,VALID,18.5734,VALID,116,VALID,0.463672,
2011-03-13, 02:48:04,VALID,916.173,VALID,0,VALID,94.6905,VALID,0,VALID,18.572,VALID,116,VALID,0.360938,
2011-03-13, 02:49:04,VALID,916.176,VALID,0,VALID,94.6828,VALID,0,VALID,18.6124,VALID,116,VALID,0.430078,
2011-03-13, 02:50:04,VALID,916.203,VALID,0,VALID,94.6447,VALID,0,VALID,18.5929,VALID,116,VALID,0.451562,
2011-03-13, 02:51:04,VALID,916.165,VALID,0,VALID,94.6828,VALID,0,VALID,18.5734,VALID,116,VALID,0.445313,
2011-03-13, 02:52:04,VALID,916.189,VALID,0,VALID,94.881,VALID,0,VALID,18.5525,VALID,116,VALID,0.594922,
2011-03-13, 02:53:04,VALID,916.208,VALID,0,VALID,94.9801,VALID,0,VALID,18.5525,VALID,116,VALID,0.592578,
2011-03-13, 02:54:04,VALID,916.176,VALID,0,VALID,95.1707,VALID,0,VALID,18.5929,VALID,116,VALID,0.641406,
2011-03-13, 02:55:04,VALID,916.214,VALID,0,VALID,95.1707,VALID,0,VALID,18.5539,VALID,116,VALID,0.738672,
2011-03-13, 02:56:04,VALID,916.219,VALID,0,VALID,95.2165,VALID,0,VALID,18.5149,VALID,116,VALID,0.622656,
2011-03-13, 02:57:04,VALID,916.243,VALID,0,VALID,95.3461,VALID,0,VALID,18.4745,VALID,116,VALID,0.557422,
2011-03-13, 02:58:04,VALID,916.239,VALID,0,VALID,95.4528,VALID,0,VALID,18.4564,VALID,116,VALID,0.756641,
2011-03-13, 02:59:04,VALID,916.238,VALID,0,VALID,95.5443,VALID,0,VALID,18.4369,VALID,116,VALID,0.848437,
2011-03-13, 03:00:04,VALID,916.223,VALID,0,VALID,95.6129,VALID,0.107441,VALID,18.416,VALID,116,VALID,0.959766,
2011-03-13, 03:01:04,VALID,916.239,VALID,0,VALID,95.7196,VALID,0,VALID,18.3561,VALID,116,VALID,1.09141,
2011-03-13, 03:02:04,VALID,916.255,VALID,0,VALID,95.8492,VALID,0,VALID,18.3561,VALID,97,VALID,1.25625,
2011-03-13, 03:03:04,VALID,916.222,VALID,0,VALID,95.9636,VALID,0,VALID,18.338,VALID,73,VALID,1.12344,
2011-03-13, 03:04:04,VALID,916.238,VALID,0,VALID,96.055,VALID,0,VALID,18.338,VALID,73,VALID,0.981641,
2011-03-13, 03:05:04,VALID,916.21,VALID,0,VALID,96.1465,VALID,0.107441,VALID,18.3575,VALID,73,VALID,0.775781,
2011-03-13, 03:06:04,VALID,916.236,VALID,0,VALID,96.1465,VALID,0,VALID,18.2977,VALID,73,VALID,0.551562,
2011-03-13, 03:07:04,VALID,916.233,VALID,0,VALID,96.1541,VALID,0.107441,VALID,18.3185,VALID,73,VALID,0.753906,
2011-03-13, 03:08:04,VALID,916.19,VALID,0.2,VALID,96.1618,VALID,0.107441,VALID,18.2782,VALID,73,VALID,0.978125,
2011-03-13, 03:09:04,VALID,916.204,VALID,0,VALID,96.177,VALID,0,VALID,18.299,VALID,73,VALID,1.03164,
2011-03-13, 03:10:04,VALID,916.164,VALID,0,VALID,96.177,VALID,0,VALID,18.2782,VALID,73,VALID,0.958203,
2011-03-13, 03:11:04,VALID,916.192,VALID,0,VALID,96.177,VALID,0,VALID,18.3185,VALID,73,VALID,0.971484,
2011-03-13, 03:12:04,VALID,916.191,VALID,0,VALID,96.1846,VALID,0,VALID,18.2977,VALID,73,VALID,1.18672,
2011-03-13, 03:13:04,VALID,916.178,VALID,0,VALID,96.2151,VALID,0,VALID,18.2782,VALID,73,VALID,0.900781,
2011-03-13, 03:14:04,VALID,916.221,VALID,0,VALID,96.177,VALID,0,VALID,18.299,VALID,74,VALID,0.933594,
2011-03-13, 03:15:04,VALID,916.208,VALID,0,VALID,96.1694,VALID,0,VALID,18.2796,VALID,74,VALID,0.749609,
2011-03-13, 03:16:04,VALID,916.218,VALID,0,VALID,96.1389,VALID,0,VALID,18.2796,VALID,74,VALID,0.5,
2011-03-13, 03:17:04,VALID,916.196,VALID,0,VALID,96.177,VALID,0,VALID,18.3004,VALID,74,VALID,0.522656,
2011-03-13, 03:18:04,VALID,916.207,VALID,0,VALID,96.1618,VALID,0,VALID,18.2601,VALID,74,VALID,0.564453,
2011-03-13, 03:19:04,VALID,916.18,VALID,0,VALID,96.1694,VALID,0,VALID,18.2809,VALID,73,VALID,0.814453,
2011-03-13, 03:20:04,VALID,916.177,VALID,0,VALID,96.1923,VALID,0,VALID,18.2796,VALID,74,VALID,0.465234,
2011-03-13, 03:21:04,VALID,916.2,VALID,0,VALID,96.1923,VALID,0,VALID,18.2601,VALID,74,VALID,0.595703,
2011-03-13, 03:22:04,VALID,916.151,VALID,0,VALID,96.2075,VALID,0,VALID,18.2601,VALID,74,VALID,0.873828,
2011-03-13, 03:23:04,VALID,916.174,VALID,0,VALID,96.2456,VALID,0,VALID,18.2809,VALID,74,VALID,0.801172,
2011-03-13, 03:24:04,VALID,916.159,VALID,0.2,VALID,96.2533,VALID,0,VALID,18.2809,VALID,74,VALID,0.783203,
2011-03-13, 03:25:04,VALID,916.141,VALID,0,VALID,96.2685,VALID,0,VALID,18.2601,VALID,74,VALID,0.612109,
2011-03-13, 03:26:04,VALID,916.117,VALID,0,VALID,96.2914,VALID,0,VALID,18.2601,VALID,74,VALID,0.753906,
2011-03-13, 03:27:04,VALID,916.116,VALID,0,VALID,96.3066,VALID,0,VALID,18.2601,VALID,74,VALID,0.584375,
2011-03-13, 03:28:04,VALID,916.099,VALID,0,VALID,96.3371,VALID,0,VALID,18.3004,VALID,74,VALID,0.633594,
2011-03-13, 03:29:04,VALID,916.073,VALID,0,VALID,96.3905,VALID,0,VALID,18.299,VALID,74,VALID,0.482422,
2011-03-13, 03:30:04,VALID,916.074,VALID,0,VALID,96.3752,VALID,0,VALID,18.2796,VALID,74,VALID,0.465625,
2011-03-13, 03:31:04,VALID,916.064,VALID,0,VALID,96.421,VALID,0,VALID,18.3394,VALID,74,VALID,0.452344,
2011-03-13, 03:32:04,VALID,916.064,VALID,0,VALID,96.3981,VALID,0,VALID,18.3394,VALID,74,VALID,0.589063,
2011-03-13, 03:33:04,VALID,916.081,VALID,0,VALID,96.4743,VALID,0,VALID,18.3784,VALID,74,VALID,0.402344,
2011-03-13, 03:34:04,VALID,916.044,VALID,0,VALID,96.4591,VALID,0,VALID,18.3979,VALID,74,VALID,0.648828,
2011-03-13, 03:35:04,VALID,916.045,VALID,0,VALID,96.4133,VALID,0,VALID,18.338,VALID,124,VALID,0.630078,
2011-03-13, 03:36:04,VALID,916.035,VALID,0,VALID,96.4667,VALID,0,VALID,18.338,VALID,124,VALID,0.581641,
2011-03-13, 03:37:04,VALID,916.025,VALID,0.2,VALID,96.4591,VALID,0,VALID,18.3394,VALID,124,VALID,1.20117,
2011-03-13, 03:38:04,VALID,916.032,VALID,0,VALID,96.4972,VALID,0,VALID,18.3185,VALID,124,VALID,0.976563,
2011-03-13, 03:39:04,VALID,916.04,VALID,0,VALID,96.5124,VALID,0,VALID,18.3394,VALID,124,VALID,0.967188,
2011-03-13, 03:40:04,VALID,916.065,VALID,0,VALID,96.5201,VALID,0,VALID,18.3394,VALID,124,VALID,0.95625,
2011-03-13, 03:41:04,VALID,916.046,VALID,0,VALID,96.5429,VALID,0,VALID,18.3185,VALID,124,VALID,0.821875,
2011-03-13, 03:42:04,VALID,916.075,VALID,0,VALID,96.5658,VALID,0,VALID,18.338,VALID,124,VALID,0.769922,
2011-03-13, 03:43:04,VALID,916.089,VALID,0,VALID,96.5658,VALID,0,VALID,18.3185,VALID,124,VALID,0.992578,
2011-03-13, 03:44:04,VALID,916.081,VALID,0,VALID,96.5506,VALID,0,VALID,18.3185,VALID,124,VALID,0.809766,
2011-03-13, 03:45:04,VALID,916.098,VALID,0,VALID,96.4743,VALID,0,VALID,18.3394,VALID,124,VALID,0.965234,